KUIPER-00266

导读

KUIPER-00266是亚马逊柯伊伯(Kuiper)低轨宽带卫星星座的成员,于2026年2月12日由法国阿丽亚娜6号火箭发射升空,属于星座部署批次中的一颗卫星。该卫星运行在近地轨道,配备多波束相控阵天线,工作于Ka波段,可灵活分配通信容量,旨在为全球提供高速低延迟卫星宽带服务,助力柯伊伯星座弥补欠发达地区的数字鸿沟。

基本信息
目录编号:
67789
目录名称:
KUIPER-00266
国际标识:
2026-030AB
轨道中心:
EARTH
卫星名称:
KUIPER-00266
卫星全名:
KUIPER-00266
卫星状态:
在轨 (已飞行205 天)
发射日期:
2026-02-12 UTC
国别 :
美国 (US)
星等 :
--
轨道信息
数据来源 国际轨道数据 AOE轨道数据
星历时间 2026-09-04T23:03:34+0800
22小时前
查看轨道信息
2026-09-01T23:00:00+0800
3天前
查看轨道信息
半长轴 7007.667km 7007.702km
偏心率 0.0001092 0.0001201
轨道倾角 51.900° 51.898°
近地点辐角 79.610° 57.375°
升交点赤经 121.862° 135.142°
平近点角 280.499° 136.567°
近地点 628.764km 628.723km
远地点 630.296km 630.407km
周期 97.302分钟 97.302分钟
每日圈数 14.79935 14.799238
详细信息
使用方式:
暂无
2D轨道图
3D轨道图
轨道高度分析图
轨道倾角分析图
轨道综合分析图
查看轨道综合分析图